[[{"header":{"parameterUnit":"m.s-1","parameterCategory":1,"la1":30.2991,"la2":30.254,"lo1":-89.0895,"lo2":-89.0444,"dy":0.0017,"dx":0.0017,"nx":28,"ny":28,"refTime":"2024-10-14T21:00:00:Z","depth":0,"parameterNumber":2,"parameterNumberName":"U-component_of_WINDS"},"data":[0,0,0,0,0,0,0,0,0,0,0,0,0,0,0,0,0,0,0,0,0,0,0,0,0,0,0,0,0,0,0,0,0,0,0,0,0,0,0,0,0,0,0,0,0,0,0,0,0,0,0,0,0,0,0,0,0,0,-3.626,-3.626,0,-3.6249,-3.6249,-3.6248,-3.61,-3.6097,-3.6093,-3.6089,-3.608,-3.6083,-3.6086,0,0,0,0,0,0,0,0,0,0,0,0,0,-3.6157,-3.6159,-3.6261,-3.626,-3.626,-3.6249,-3.6249,-3.6248,-3.6101,-3.6097,-3.6092,-3.6088,-3.6079,-3.6083,-3.6087,0,0,0,0,0,0,0,0,0,0,0,0,0,-3.6179,-3.616,-3.6261,-3.6185,-3.6178,-3.6249,-3.6249,-3.6248,-3.6102,-3.6096,-3.6091,-3.6086,-3.6078,-3.6082,-3.6087,-3.623,0,0,-3.6102,-3.6104,0,0,0,0,0,0,0,0,-3.6178,-3.6183,-3.6196,-3.6191,-3.6183,-3.617,-3.6208,-3.6242,-3.6104,-3.6131,-3.6089,-3.6083,-3.6115,-3.6116,-3.6126,-3.6229,-3.6229,-3.6103,-3.6105,-3.6108,-3.6109,0,0,0,0,0,0,0,-3.6177,-3.6183,-3.6256,-3.6197,-3.6189,-3.6152,-3.6149,-3.6214,-3.6155,-3.6128,-3.6118,-3.6118,-3.611,-3.6122,-3.6125,-3.6229,-3.6102,-3.6107,-3.611,-3.6112,-3.6446,-3.6452,0,0,0,0,0,0,-3.6185,-3.6183,-3.6256,-3.6255,-3.6167,-3.6159,-3.6155,-3.618,-3.6154,-3.6144,-3.6123,-3.6111,-3.6117,-3.612,-3.6124,-3.6288,-3.6108,-3.6112,-3.6115,-3.644,-3.6447,-3.6454,0,0,0,0,0,0,-3.6184,-3.6193,-3.6257,-3.6216,-3.6221,-3.6167,-3.6195,-3.6183,-3.6195,-3.6149,-3.6138,-3.6146,-3.6112,-3.6117,-3.6204,-3.6286,-3.6114,-3.6119,-3.6433,-3.6442,-3.6451,-3.6619,0,0,0,0,0,0,-3.6181,-3.6194,-3.6247,-3.6218,-3.6224,-3.6337,-3.62,-3.6187,-3.6203,-3.6188,-3.6168,-3.616,-3.6108,-3.6198,-3.6209,-3.629,-3.6122,-3.6426,-3.6437,-3.6448,-3.6606,-3.6632,-3.6655,0,0,0,0,0,-3.6178,-3.6296,-3.6251,-3.626,-3.629,-3.6342,-3.6345,-3.6283,-3.621,-3.6264,-3.6234,-3.616,-3.6275,-3.6208,-3.6219,-3.6303,-3.642,-3.6434,-3.6447,-3.6595,-3.6627,-3.6655,0,0,0,0,0,0,-3.6337,-3.6291,-3.624,-3.6352,-3.6352,-3.6317,-3.6382,-3.632,-3.6341,-3.6326,-3.6248,-3.6245,-3.6344,-3.6331,-3.6257,-3.6438,-3.6335,-3.6351,-3.6443,-3.6473,-3.6498,-3.6499,-3.6127,0,0,0,0,0,-3.6385,-3.6431,-3.6388,-3.6491,-3.6493,-3.6438,-3.6459,-3.641,-3.6408,-3.6407,-3.6384,-3.6385,-3.642,-3.6446,-3.6477,-3.6603,-3.6596,-3.6666,-3.6691,-3.6711,-3.6726,-3.6791,-3.6822,-3.6498,-3.6498,-3.6498,0,0,-3.6485,-3.6465,-3.6499,-3.6522,-3.6516,-3.6566,-3.6439,-3.6497,-3.6533,-3.6416,-3.6496,-3.6479,-3.6475,-3.6582,-3.6628,-3.6575,-3.6814,-3.6728,-3.6745,-3.6749,-3.6808,-3.6839,-3.6866,-3.6507,-3.6505,-3.6504,0,0,-3.6692,-3.6682,-3.6765,-3.6762,-3.6754,-3.6716,-3.6737,-3.6711,-3.6695,-3.6774,-3.6687,-3.6728,-3.6792,-3.6792,-3.6801,-3.7006,-3.6939,-3.7018,-3.7148,-3.7212,-3.7238,-3.726,-3.7333,-3.736,-3.7034,-3.7034,-3.7034,0,-3.6817,-3.6887,-3.6817,-3.688,-3.6892,-3.6787,-3.6872,-3.6872,-3.6876,-3.6887,-3.6827,-3.6904,-3.6893,-3.6998,-3.7048,-3.7059,-3.7079,-3.7021,-3.724,-3.7261,-3.7281,-3.735,-3.7378,-3.7044,-3.7043,-3.7042,-3.7041,0,-3.7042,-3.7092,-3.716,-3.7165,-3.7185,-3.7259,-3.7199,-3.7228,-3.7178,-3.7147,-3.7228,-3.7212,-3.7237,-3.7258,-3.721,-3.7356,-3.7323,-3.7253,-3.7147,-3.7323,-3.7386,-3.7412,-3.7058,-3.7054,-3.7051,-3.7049,0,0,-3.735,-3.7313,-3.734,-3.734,-3.7323,-3.736,-3.7429,-3.7452,-3.7478,-3.7484,-3.7539,-3.7595,-3.7529,-3.7539,-3.749,-3.7546,-3.771,-3.7468,-3.7467,-3.7514,-3.7869,-3.7923,-3.7954,-3.7664,-3.7669,-3.7673,-3.7869,0,-3.755,-3.7664,-3.7601,-3.7724,-3.7769,-3.7669,-3.7729,-3.7725,-3.7698,-3.7732,-3.7701,-3.7742,-3.7652,-3.7657,-3.7708,-3.7679,-3.778,-3.7664,-3.7716,-3.7719,-3.7721,-3.7987,-3.8044,-3.8231,-3.7894,-3.7898,-3.7901,0,-3.7798,-3.7812,-3.794,-3.7913,-3.7929,-3.7984,-3.7999,-3.8033,-3.8027,-3.8003,-3.8013,-3.795,-3.8016,-3.7911,-3.8,-3.7922,-3.794,-3.7928,-3.7934,-3.7937,-3.7821,-3.7998,-3.8289,-3.8317,-3.7939,-3.7936,-3.7934,0,-3.801,-3.8061,-3.8144,-3.8147,-3.8118,-3.8158,-3.8148,-3.8136,-3.8153,-3.8167,-3.8178,-3.82,-3.8212,-3.8231,-3.8175,-3.8104,-3.8272,-3.8163,-3.8254,-3.8256,-3.8295,-3.8294,-3.8593,-3.8306,-3.8306,-3.8305,-3.8305,0,-3.8239,-3.8321,-3.8238,-3.8289,-3.8378,-3.8305,-3.8395,-3.8374,-3.8363,-3.8409,-3.8324,-3.8368,-3.8292,-3.8329,-3.8286,-3.8366,-3.8373,-3.8355,-3.8343,-3.8363,-3.8366,-3.8374,-3.836,-3.8313,-3.8311,-3.831,-3.8308,0,-3.8492,-3.844,-3.8523,-3.8487,-3.848,-3.8547,-3.8517,-3.8563,-3.8528,-3.8586,-3.8596,-3.8543,-3.8582,-3.8528,-3.8562,-3.8533,-3.8643,-3.8611,-3.8646,-3.8636,-3.8731,-3.8723,-3.9047,-3.9086,-3.8774,-3.8777,-3.878,0,-3.8642,-3.8702,-3.8673,-3.8696,-3.869,-3.873,-3.8746,-3.8677,-3.8698,-3.8694,-3.8741,-3.8772,-3.8794,-3.8861,-3.8826,-3.8851,-3.8819,-3.8931,-3.8822,-3.8841,-3.8821,-3.8818,-3.8824,-3.8953,-3.8957,-3.896,-3.8963,0,-3.8914,-3.8884,-3.8911,-3.8929,-3.8951,-3.8963,-3.8968,-3.8992,-3.8919,-3.8947,-3.8985,-3.9002,-3.9035,-3.9068,-3.9083,-3.9073,-3.9007,-3.8997,-3.9019,-3.9041,-3.9058,-3.905,-3.8706,-3.899,-3.8987,-3.8985,-3.8984,-3.8983,-3.9119,-3.9168,-3.9154,-3.9187,-3.9183,-3.9189,-3.923,-3.92,-3.923,-3.9251,-3.9208,-3.9257,-3.9247,-3.9261,-3.9259,-3.9296,-3.9248,-3.9281,-3.9289,-3.9298,-3.9313,-3.9052,-3.9299,-3.9298,-3.9297,-3.9296,-3.9296,0,-3.9387,-3.9372,-3.9403,-3.9411,-3.9437,-3.937,-3.9372,-3.9398,-3.9442,-3.9438,-3.946,-3.9504,-3.9534,-3.9501,-3.9526,-3.9562,-3.9532,-3.9571,-3.9568,-3.9567,-3.9355,-3.9333,-3.9595,-3.9595,-3.9595,-3.9595,-3.9595,-3.9594,-3.9529,-3.9607,-3.9576,-3.9651,-3.9636,-3.9681,-3.9688,-3.9694,-3.969,-3.9742,-3.9766,-3.9744,-3.9729,-3.9751,-3.9776,-3.9766,-3.9779,-3.9829,-3.9808,-3.9611,-3.9582,-3.9554,-3.9532,-3.9832,-3.9833,-4.0016,-4.0018,-4.0019]},{"header":{"parameterUnit":"m.s-1","parameterCategory":1,"la1":30.2991,"la2":30.254,"lo1":-89.0895,"lo2":-89.0444,"dy":0.0017,"dx":0.0017,"nx":28,"ny":28,"refTime":"2024-10-14T21:00:00:Z","depth":0,"parameterNumber":3,"parameterNumberName":"V-component_of_WINDS"},"data":[0,0,0,0,0,0,0,0,0,0,0,0,0,0,0,0,0,0,0,0,0,0,0,0,0,0,0,0,0,0,0,0,0,0,0,0,0,0,0,0,0,0,0,0,0,0,0,0,0,0,0,0,0,0,0,0,0,0,-2.468,-2.4681,0,-2.4742,-2.4743,-2.4744,-2.4732,-2.4731,-2.473,-2.4729,-2.479,-2.4793,-2.4796,0,0,0,0,0,0,0,0,0,0,0,0,0,-2.4548,-2.4551,-2.468,-2.4681,-2.4682,-2.4742,-2.4743,-2.4744,-2.4732,-2.4731,-2.4729,-2.4728,-2.479,-2.4793,-2.4796,0,0,0,0,0,0,0,0,0,0,0,0,0,-2.4608,-2.4552,-2.468,-2.4683,-2.4684,-2.4742,-2.4743,-2.4744,-2.4732,-2.4731,-2.4729,-2.4728,-2.4788,-2.4792,-2.4796,-2.4854,0,0,-2.4809,-2.481,0,0,0,0,0,0,0,0,-2.4604,-2.4612,-2.4682,-2.4683,-2.4684,-2.4728,-2.4719,-2.4781,-2.4733,-2.4714,-2.4729,-2.4727,-2.4771,-2.4776,-2.4791,-2.4857,-2.486,-2.4809,-2.4811,-2.4813,-2.4814,0,0,0,0,0,0,0,-2.46,-2.461,-2.4705,-2.4683,-2.4684,-2.468,-2.4687,-2.4731,-2.4751,-2.4716,-2.4715,-2.4722,-2.4771,-2.4788,-2.4793,-2.4861,-2.4809,-2.4812,-2.4815,-2.4816,-2.4975,-2.4976,0,0,0,0,0,0,-2.4595,-2.4606,-2.4703,-2.4706,-2.4639,-2.4684,-2.4692,-2.4715,-2.475,-2.4754,-2.4724,-2.4722,-2.4781,-2.4788,-2.4795,-2.4863,-2.4813,-2.4817,-2.4819,-2.4973,-2.4975,-2.4977,0,0,0,0,0,0,-2.4593,-2.4604,-2.47,-2.4656,-2.4668,-2.4688,-2.4715,-2.4717,-2.4734,-2.4757,-2.476,-2.4737,-2.478,-2.4789,-2.4839,-2.4865,-2.4819,-2.4822,-2.4971,-2.4974,-2.4976,-2.5002,0,0,0,0,0,0,-2.4589,-2.4603,-2.4626,-2.4657,-2.4671,-2.4745,-2.4717,-2.472,-2.4741,-2.4739,-2.477,-2.4774,-2.478,-2.4833,-2.4843,-2.487,-2.4825,-2.4969,-2.4972,-2.4975,-2.4999,-2.5005,-2.5011,0,0,0,0,0,-2.4584,-2.4631,-2.4628,-2.4639,-2.47,-2.4746,-2.4754,-2.4761,-2.4743,-2.4766,-2.478,-2.4773,-2.4861,-2.4838,-2.485,-2.4878,-2.4967,-2.4971,-2.4975,-2.4996,-2.5004,-2.501,0,0,0,0,0,0,-2.4603,-2.4635,-2.4632,-2.469,-2.4715,-2.4744,-2.4773,-2.4769,-2.4799,-2.4796,-2.4802,-2.4809,-2.486,-2.4874,-2.4848,-2.4935,-2.4911,-2.4918,-2.4924,-2.4931,-2.4937,-2.4932,-2.4829,0,0,0,0,0,-2.4614,-2.465,-2.4676,-2.4725,-2.4738,-2.4753,-2.4773,-2.4776,-2.4803,-2.4813,-2.4831,-2.4856,-2.4889,-2.4911,-2.4943,-2.5001,-2.5006,-2.5026,-2.5032,-2.5036,-2.5041,-2.5071,-2.5079,-2.499,-2.499,-2.499,0,0,-2.4637,-2.4659,-2.4681,-2.4729,-2.4749,-2.4784,-2.4762,-2.4801,-2.4827,-2.4819,-2.4867,-2.4881,-2.4909,-2.4963,-2.4987,-2.4976,-2.5067,-2.5041,-2.5045,-2.5048,-2.5076,-2.5084,-2.5092,-2.4993,-2.4993,-2.4992,0,0,-2.4697,-2.4718,-2.476,-2.478,-2.4811,-2.482,-2.483,-2.4859,-2.4868,-2.4917,-2.4911,-2.4941,-2.4999,-2.5019,-2.5036,-2.5101,-2.5095,-2.5112,-2.5142,-2.5171,-2.5178,-2.5184,-2.5205,-2.5213,-2.5117,-2.5117,-2.5117,0,-2.4721,-2.4775,-2.4782,-2.4821,-2.4841,-2.4836,-2.4877,-2.4897,-2.4936,-2.4949,-2.4936,-2.5007,-2.5026,-2.5083,-2.5099,-2.5114,-2.5124,-2.5108,-2.5176,-2.5183,-2.5188,-2.5209,-2.5217,-2.5119,-2.5119,-2.5118,-2.5118,0,-2.4803,-2.484,-2.4871,-2.4908,-2.4932,-2.4972,-2.4984,-2.5007,-2.5007,-2.5018,-2.5066,-2.5088,-2.5124,-2.5138,-2.5139,-2.5194,-2.5186,-2.5175,-2.5151,-2.5199,-2.5218,-2.5226,-2.5121,-2.5121,-2.512,-2.512,0,0,-2.4877,-2.4917,-2.4928,-2.4944,-2.4976,-2.5005,-2.5044,-2.5079,-2.5097,-2.5124,-2.5156,-2.5204,-2.5193,-2.5213,-2.5216,-2.5241,-2.5289,-2.5227,-2.5227,-2.5236,-2.535,-2.5357,-2.5366,-2.5285,-2.5287,-2.5288,-2.5347,0,-2.4939,-2.5008,-2.5014,-2.5076,-2.511,-2.5104,-2.5138,-2.516,-2.5171,-2.52,-2.5211,-2.5245,-2.5229,-2.5241,-2.5265,-2.5278,-2.5312,-2.5274,-2.5313,-2.5315,-2.5305,-2.5377,-2.5385,-2.5439,-2.5355,-2.5356,-2.5357,0,-2.502,-2.5049,-2.5114,-2.514,-2.5154,-2.5184,-2.5216,-2.5244,-2.5269,-2.5275,-2.5296,-2.5295,-2.5334,-2.5309,-2.5361,-2.5336,-2.5352,-2.536,-2.5363,-2.5366,-2.5338,-2.538,-2.5457,-2.5465,-2.5369,-2.5368,-2.5367,0,-2.5065,-2.512,-2.5166,-2.518,-2.5212,-2.5233,-2.5247,-2.527,-2.529,-2.5317,-2.533,-2.5361,-2.5378,-2.5402,-2.5408,-2.539,-2.546,-2.5436,-2.5464,-2.5464,-2.5479,-2.5477,-2.5558,-2.5491,-2.5491,-2.5491,-2.5491,0,-2.5133,-2.5172,-2.5186,-2.5214,-2.5258,-2.5264,-2.5307,-2.532,-2.534,-2.5369,-2.5366,-2.5394,-2.5402,-2.543,-2.5436,-2.5477,-2.5485,-2.549,-2.549,-2.5489,-2.5488,-2.5499,-2.5495,-2.5493,-2.5493,-2.5492,-2.5492,0,-2.519,-2.5202,-2.5251,-2.5276,-2.5284,-2.5314,-2.5336,-2.5362,-2.5372,-2.5408,-2.5417,-2.5432,-2.5465,-2.5475,-2.5515,-2.5518,-2.5566,-2.5564,-2.5558,-2.5557,-2.5584,-2.5581,-2.5673,-2.5685,-2.5612,-2.5613,-2.5613,0,-2.5232,-2.5263,-2.5291,-2.531,-2.5325,-2.5357,-2.5377,-2.5384,-2.5404,-2.5434,-2.5456,-2.5489,-2.5515,-2.5568,-2.5582,-2.5611,-2.5609,-2.5639,-2.5614,-2.5611,-2.5608,-2.5605,-2.5607,-2.5644,-2.5645,-2.5645,-2.5646,0,-2.5305,-2.5308,-2.5337,-2.5368,-2.5392,-2.5417,-2.544,-2.5456,-2.5466,-2.5489,-2.5523,-2.5543,-2.5583,-2.5615,-2.5645,-2.5658,-2.5653,-2.5654,-2.5662,-2.566,-2.5655,-2.5656,-2.557,-2.5652,-2.5651,-2.5651,-2.565,-2.565,-2.5355,-2.538,-2.5404,-2.5436,-2.5454,-2.5476,-2.5501,-2.5514,-2.5542,-2.5575,-2.5577,-2.5613,-2.5635,-2.5675,-2.569,-2.5717,-2.5708,-2.572,-2.5722,-2.5725,-2.5726,-2.5651,-2.5723,-2.5723,-2.5722,-2.5722,-2.5722,0,-2.5425,-2.544,-2.5469,-2.5502,-2.5527,-2.552,-2.5545,-2.5566,-2.5598,-2.5619,-2.5645,-2.5683,-2.5713,-2.5729,-2.5759,-2.5777,-2.5776,-2.5785,-2.5783,-2.5786,-2.5734,-2.5723,-2.5785,-2.5785,-2.5785,-2.5785,-2.5785,-2.5785,-2.5465,-2.5508,-2.5514,-2.5565,-2.5579,-2.5614,-2.5629,-2.5648,-2.5665,-2.5707,-2.5732,-2.5742,-2.5761,-2.5792,-2.5819,-2.5822,-2.5833,-2.5843,-2.5845,-2.5796,-2.579,-2.5783,-2.5773,-2.5845,-2.5845,-2.5895,-2.5895,-2.5896]}]]